Regional Weather Roundup
Issued by NWS Albany, NY

Home | Current Version | Previous Version | Graphics & Text | Print | Product List | Glossary On
Versions: 1 2 3 4 5 6 7 8 9 10 11 12 13 14 15 16 17 18 19 20 21 22 23 24 25 26 27 28 29 30 31 32 33 34 35 36 37 38 39 40 41 42 43 44 45 46 47 48 49 50
000
ASUS41 KALY 200110
RWRALY

NEW YORK STATE HOURLY WEATHER ROUNDUP
NATIONAL WEATHER SERVICE ALBANY NY
900 PM EDT THU OCT 19 2017

NOTE: "FAIR" INDICATES FEW OR NO CLOUDS BELOW 12,000 FEET WITH NO
SIGNIFICANT WEATHER AND/OR NO OBSTRUCTIONS TO VISIBILITY.

NYZ032-033-038>043-046>054-057>066-NYZ062>081-082-084-200200-
EAST


CITY           SKY/WX    TMP DP  RH WIND       PRES   REMARKS
ALBANY         CLOUDY    61  45  55 S7        29.99S
GLENS FALLS    CLOUDY    61  45  55 S9        29.97R
POUGHKEEPSIE   CLOUDY    53  45  74 CALM      30.05R
NEWBURGH       CLEAR     59  46  63 W6        30.08R
MONTGOMERY     CLOUDY    57  45  64 SW10      30.06R
WHITE PLAINS   CLEAR     63  43  48 VRB5      30.07S
ISLIP          PTCLDY    62  57  83 SW10      30.08S
NEW YORK CITY  PTCLDY    67  45  45 SW8       30.08S
CENTRAL PARK   CLEAR     65  44  46 VRB5      30.11S
$$

NYZ005>009-017-018-044>046-055-056-200200-
CENTRAL


CITY           SKY/WX    TMP DP  RH WIND       PRES   REMARKS
FULTON         PTCLDY    63  50  62 W12G22    30.04R
SYRACUSE       CLOUDY    63  49  60 W13       30.03R
ROME           CLOUDY    64  50  60 W14       30.04R
ELMIRA         CLOUDY    53  46  77 CALM      30.07R
BINGHAMTON     CLEAR     58  42  55 SW10      30.07R
MONTICELLO     CLEAR     58  41  53 VRB6      30.09S
$$

NYZ026>034-041>043-087-200200-
NORTH


CITY           SKY/WX    TMP DP  RH WIND       PRES   REMARKS
WATERTOWN      CLOUDY    60  54  80 W12       30.00R
FORT DRUM      NOT AVBL
OGDENSBURG     FAIR      60  53  76 SW8       29.95R
MASSENA        CLEAR     62  54  74 SW12      29.94R
SARANAC LAKE   PTCLDY    57  49  74 W10G22    29.96R
PLATTSBURGH    CLOUDY    66  46  48 VRB7      29.91S
$$

NYZ001>004-010>016-019>021-085-200200-
WEST


CITY           SKY/WX    TMP DP  RH WIND       PRES   REMARKS
NIAGARA FALLS  CLEAR     55  41  59 W9        30.10R
BUFFALO        PTCLDY    59  51  75 W7        30.11R
DUNKIRK        CLEAR     57  55  93 SW6       30.13R
JAMESTOWN      PTCLDY    57  50  77 W7        30.15R
WELLSVILLE     PTCLDY    59  45  59 W9        30.13R
ROCHESTER      PTCLDY    60  53  77 W10       30.08R
PENN YAN       CLOUDY    64  48  56 W14G26    30.08R
$$

             KEY
       WCI = WIND CHILL INDEX
       VSB = VISIBILITY
       HX  = HEAT INDEX
$$



USA.gov is the U.S. government's official web portal to all federal, state and local government web resources and services.